User: anonymous   Login
Location: *
(49.4547°N, 7.9131°E)
Time: 09:33:50
(UTC+00:00)
Language:

Cosmos 1452 Rocket - Orbit

View from above orbital plane
View from above orbital plane
View from above satellite
View from above satellite

Ground track
Ground track

The orbit data is extracted from the following two-line orbital elements,

1 13992U 83031B   19318.90814445  .00000023  00000-0  16972-4 0  9990
2 13992  74.0528 191.6974 0005911 306.5863  53.4746 14.36174390915233
Epoch (UTC): 14 November 2019 21:47:43
Eccentricity: 0.0005911
inclination: 74.0528°
perigee height: 767 km
apogee height: 775 km
right ascension of ascending node: 191.6974°
argument of perigee: 306.5863°
revolutions per day: 14.36174390
mean anomaly at epoch: 53.4746°
orbit number at epoch: 91523

The dashed part of the orbit path shows where the satellite is in the earth's shadow,  

DLR